This demonstration page uses our WeatherBlox Daily Observations layout. Learn more.

Hourly Observations for December 2, 2016

Temp ( °F °C ) Dew Point ( °F °C ) Humidity (%) Winds ( mph kmh ) Pressure ( in mb ) Visibility ( mi km ) Precip ( " mm )
12:15 am 00:15 Clear 22 -5.8 16 -8.8 80 80 Calm 30.27 1025 10 16.0934 0 0
12:35 am 00:35 Clear 22 -5.5 17 -8.6 79 79 Calm 30.24 1024 10 16.0934 0 0
12:55 am 00:55 Clear 21 -6.3 16 -9.1 81 81 Calm 30.27 1025 10 16.0934 0 0
1:15 am 01:15 Clear 19 -7.2 15 -9.7 83 83 Calm 30.27 1025 10 16.0934 0 0
1:35 am 01:35 Clear 17 -8.1 13 -10.8 81 81 Calm 30.27 1025 10 16.0934 0 0
1:55 am 01:55 Clear 19 -7.5 13 -10.3 81 81 Calm 30.27 1025 10 16.0934 0 0
2:15 am 02:15 Clear 19 -7 14 -10.2 78 78 Calm 30.27 1025 10 16.0934 0 0
2:35 am 02:35 Clear 18 -7.6 14 -10.1 82 82 NW 5 7 30.27 1025 10 16.0934 0 0
2:55 am 02:55 Clear 18 -7.6 14 -10 83 83 Calm 30.27 1025 10 16.0934 0 0
3:15 am 03:15 Clear 19 -7.5 14 -9.8 84 84 Calm 30.3 1026 10 16.0934 0 0
3:35 am 03:35 Clear 19 -7.5 14 -9.9 83 83 NW 5 7 30.3 1026 10 16.0934 0 0
3:55 am 03:55 Clear 19 -7.5 15 -9.6 85 85 NNW 3 6 30.3 1026 10 16.0934 0 0
4:15 am 04:15 Clear 18 -8 14 -10 86 86 NNW 5 7 30.3 1026 10 16.0934 0 0
4:35 am 04:35 Clear 17 -8.3 14 -10.1 87 87 NW 6 9 30.33 1027 10 16.0934 0 0
4:55 am 04:55 Clear 17 -8.3 14 -10 88 88 NNW 5 7 30.33 1027 10 16.0934 0 0
5:15 am 05:15 Clear 18 -8 15 -9.5 89 89 NNW 5 7 30.3 1026 10 16.0934 0 0
5:35 am 05:35 Clear 18 -8 15 -9.4 90 90 NNW 7 11 30.3 1026 10 16.0934 0 0
5:55 am 05:55 Clear 19 -7.5 16 -9 89 89 NNW 6 9 30.3 1026 10 16.0934 0 0
6:15 am 06:15 Clear 18 -7.7 16 -9.1 90 90 NW 3 6 30.33 1027 10 16.0934 0 0
6:35 am 06:35 Clear 17 -8.3 15 -9.6 90 90 Calm 30.33 1027 10 16.0934 0 0
6:55 am 06:55 Clear 17 -8.5 15 -9.7 91 91 NW 3 6 30.36 1028 10 16.0934 0 0
7:15 am 07:15 Clear 17 -8.6 14 -9.8 91 91 NNW 3 6 30.36 1028 10 16.0934 0 0
7:35 am 07:35 Clear 16 -9 14 -10 93 93 Calm 30.36 1028 10 16.0934 0 0
7:55 am 07:55 Sunny 15 -9.2 13 -10.3 92 92 N 3 6 30.36 1028 10 16.0934 0 0
8:15 am 08:15 Sunny 18 -8 16 -9.1 92 92 N 3 6 30.39 1029 10 16.0934 0 0
8:35 am 08:35 Sunny 20 -6.4 19 -7.5 92 92 N 3 6 30.36 1028 10 16.0934 0 0
8:55 am 08:55 Sunny 23 -4.8 21 -6 91 91 NNE 5 7 30.36 1028 10 16.0934 0 0
9:15 am 09:15 Sunny 26 -3.5 23 -4.9 90 90 NE 6 9 30.33 1027 10 16.0934 0 0
9:35 am 09:35 Sunny 28 -2.3 25 -4 88 88 NE 5 7 30.36 1028 10 16.0934 0 0
9:55 am 09:55 Sunny 30 -1.3 26 -3.6 85 85 E 5 7 30.33 1027 10 16.0934 0 0
10:15 am 10:15 Sunny 31 -0.3 26 -3.2 81 81 ENE 6 9 30.33 1027 10 16.0934 0 0
10:35 am 10:35 Sunny 33 0.5 26 -3.2 77 77 E 7 11 30.36 1028 10 16.0934 0 0
10:55 am 10:55 Sunny 34 0.9 26 -3.1 75 75 E 5 7 30.36 1028 10 16.0934 0 0
11:15 am 11:15 Sunny 35 1.5 26 -3.4 70 70 E 3 6 30.36 1028 10 16.0934 0 0
11:35 am 11:35 Sunny 35 1.9 26 -3.6 67 67 Calm 30.33 1027 10 16.0934 0 0
11:55 am 11:55 Sunny 36 2.3 26 -3.2 67 67 ENE 3 6 30.33 1027 10 16.0934 0 0
12:15 pm 12:15 Sunny 37 2.5 26 -3.5 65 65 ENE 5 7 30.33 1027 10 16.0934 0 0
12:35 pm 12:35 Sunny 37 2.6 25 -3.7 64 64 Calm 30.33 1027 10 16.0934 0 0
12:55 pm 12:55 Sunny 38 3.1 25 -3.8 61 61 Calm 30.33 1027 10 16.0934 0 0
1:15 pm 13:15 Sunny 38 3.3 25 -4 59 59 ENE 3 6 30.33 1027 10 16.0934 0 0
1:35 pm 13:35 Sunny 38 3.6 24 -4.4 56 56 Calm 30.3 1026 10 16.0934 0 0
1:55 pm 13:55 Sunny 39 3.7 24 -4.4 56 56 Calm 30.3 1026 10 16.0934 0 0
2:15 pm 14:15 Sunny 39 3.7 25 -4.1 57 57 Calm 30.3 1026 10 16.0934 0 0
2:35 pm 14:35 Sunny 39 4 25 -4 56 56 Calm 30.3 1026 10 16.0934 0 0
2:55 pm 14:55 Sunny 39 4 25 -4.1 56 56 Calm 30.3 1026 10 16.0934 0 0
3:15 pm 15:15 Sunny 40 4.3 25 -4.1 55 55 Calm 30.3 1026 10 16.0934 0 0
3:35 pm 15:35 Sunny 39 3.8 24 -4.4 55 55 Calm 30.33 1027 10 16.0934 0 0
3:55 pm 15:55 Sunny 39 4 25 -4.1 56 56 Calm 30.33 1027 10 16.0934 0 0
4:15 pm 16:15 Sunny 39 4 24 -4.3 55 55 Calm 30.33 1027 10 16.0934 0 0
4:35 pm 16:35 Sunny 39 4 24 -4.2 56 56 Calm 30.33 1027 10 16.0934 0 0
4:55 pm 16:55 Sunny 38 3.1 23 -4.9 56 56 Calm 30.33 1027 10 16.0934 0 0
5:15 pm 17:15 Clear 33 0.8 22 -5.4 64 64 NE 3 6 30.36 1028 10 16.0934 0 0
5:35 pm 17:35 Clear 31 -0.7 21 -5.9 68 68 NE 3 6 30.36 1028 10 16.0934 0 0
5:55 pm 17:55 Clear 29 -1.5 21 -6 72 72 NE 3 6 30.39 1029 10 16.0934 0 0
6:15 pm 18:15 Clear 28 -2.2 21 -6 75 75 ENE 3 6 30.39 1029 10 16.0934 0 0
6:35 pm 18:35 Clear 28 -2.1 21 -5.9 76 76 E 3 6 30.39 1029 10 16.0934 0 0
6:55 pm 18:55 Clear 28 -2.4 21 -6 77 77 E 3 6 30.39 1029 10 16.0934 0 0
7:15 pm 19:15 Clear 27 -2.7 21 -6.3 77 77 E 3 6 30.39 1029 10 16.0934 0 0
7:35 pm 19:35 Clear 26 -3.5 20 -6.5 80 80 E 3 6 30.39 1029 10 16.0934 0 0
7:55 pm 19:55 Clear 26 -3.1 21 -6 81 81 Calm 30.39 1029 10 16.0934 0 0
8:15 pm 20:15 Clear 26 -3.2 22 -5.7 83 83 Calm 30.39 1029 10 16.0934 0 0
8:35 pm 20:35 Clear 26 -3.1 21 -5.9 81 81 Calm 30.39 1029 10 16.0934 0 0
8:55 pm 20:55 Clear 26 -3.3 21 -6.2 81 81 Calm 30.39 1029 10 16.0934 0 0
9:15 pm 21:15 Clear 24 -4.2 20 -6.5 84 84 Calm 30.45 1031 10 16.0934 0 0
9:35 pm 21:35 Clear 25 -4 21 -6 86 86 Calm 30.39 1029 10 16.0934 0 0
9:55 pm 21:55 Clear 22 -5.7 18 -7.6 87 87 Calm 30.42 1030 10 16.0934 0 0
10:15 pm 22:15 Clear 23 -4.8 18 -7.8 80 80 Calm 30.42 1030 10 16.0934 0 0
10:35 pm 22:35 Clear 24 -4.2 20 -6.8 82 82 S 3 6 30.45 1031 10 16.0934 0 0
10:55 pm 22:55 Clear 26 -3.4 22 -5.7 84 84 S 5 7 30.42 1030 10 16.0934 0 0
11:15 pm 23:15 Clear 27 -2.7 22 -5.3 83 83 S 8 13 30.42 1030 10 16.0934 0 0
11:35 pm 23:35 Mostly Cloudy 28 -2.2 23 -5 81 81 S 6 9 30.42 1030 10 16.0934 0 0
11:55 pm 23:55 Cloudy 29 -1.9 24 -4.7 81 81 S 7 11 30.42 1030 10 16.0934 0 0

Powered by AerisWeather